SCP
0 0 0 0 0 0 0 0 0 0 0 0 0 0 0 0 0 0 0 0 0 0 0 0 0 0 0 0 0 0 0 0 0 0 0 0 0 0 0 0 0 0 0
0 0 0 0 0 0 0 0 0 0 0 0 0 0 0 0 0 0 0 0 0 0 0 0 0 0 0 0 0 0 0 0 0 0 0 0 0 0 0 0 0 0 0
0 0 0 0 0 0 0 0 0 0 0 0 0 0 0 0 0 0 0 0 0 0 0 0 0 0 0 0 0 0 0 0 0 0 0 0 0 0 0 0 0 0 0
0 0 0 0 0 0 0 0 0 0 0 0 0 0 0 0 0 0 0 0 0 0 0 0 0 0 0 0 0 0 0 0 0 0 0 0 0 0 0 0 0 0 0
0 0 0 0 0 0 0 0 0 0 0 0 0 0 0 0 0 0 0 0 0 0 0 0 0 0 0 0 0 0 0 0 0 0 0 0 0 0 0 0 0 0 0
0 0 0 0 0 0 0 0 0 0 0 0 0 0 0 0 0 0 0 0 0 0 0 0 0 0 0 0 0 0 0 0 0 0 0 0 0 0 0 0 0 0 0
0 0 0 0 0 0 0 0 0 0 0 0 0 0 0 0 0 0 0 0 0 0 0 0 0 0 0 0 0 0 0 0 0 0 0 0 0 0 0 0 0 0 0
0 0 0 0 0 0 0 0 0 0 0 0 0 0 0 0 0 0 0 0 0 0 0 0 0 0 0 0 0 0 0 0 0 0 0 0 0 0 0 0 0 0 0
0 0 0 0 0 0 0 0 0 0 0 0 0 0 0 0 0 0 0 0 0 0 0 0 0 0 0 0 0 0 0 0 0 0 0 0 0 0 0 0 0 0 0
0 0 0 0 0 0 0 0 0 0 0 0 0 0 0 0 0 0 0 0 0 0 0 0 0 0 0 0 0 0 0 0 0 0 0 0 0 0 0 0 0 0 0
0 0 0 0 0 0 0 0 0 0 0 0 0 0 0 0 0 0 0 0 0 0 0 0 0 0 0 0 0 0 0 0 0 0 0 0 0 0 0 0 0 0 0
0 0 0 0 0 0 0 0 0 0 0 0 0 0 0 0 0 0 0 0 0 0 0 0 0 0 0 0 0 0 0 0 0 0 0 0 0 0 0 0 0 0 0
0 0 0 0 0 0 0 0 0 0 0 0 0 0 0 0 0 0 0 0 0 0 0 0 0 0 0 0 0 0 0 0 0 0 0 0 0 0 0 0 0 0 0
0 0 0 0 0 0 0 0 0 0 0 0 0 0 0 0 0 0 0 0 0 0 0 0 0 0 0 0 0 0 0 0 0 0 0 0 0 0 0 0 0 0 0
0 0 0 0 0 0 0 0 0 0 0 0 0 0 0 0 0 0 0 0 0 0 0 0 0 0 0 0 0 0 0 0 0 0 0 0 0 0 0 0 0 0 0
0 0 0 0 0 0 0 0 0 0 0 0 0 0 0 0 0 0 0 0 0 0 0 0 0 0 0 0 0 0 0 0 0 0 0 0 0 0 0 0 0 0 0
0 0 0 0 0 0 0 0 0 0 0 0 0 0 0 0 0 0 0 0 0 0 0 0 0 0 0 0 0 0 0 0 0 0 0 0 0 0 0 0 0 0 0
0 0 0 0 0 0 0 0 0 0 0 0 0 0 0 0 0 0 0 0 0 0 0 0 0 0 0 0 0 0 0 0 0 0 0 0 0 0 0 0 0 0 0
0 0 0 0 0 0 0 0 0 0 0 0 0 0 0 0 0 0 0 0 0 0 0 0 0 0 0 0 0 0 0 0 0 0 0 0 0 0 0 0 0 0 0
0 0 0 0 0 0 0 0 0 0 0 0 0 0 0 0 0 0 0 0 0 0 0 0 0 0 0 0 0 0 0 0 0 0 0 0 0 0 0 0 0 0 0
0 0 0 0 0 0 0 0 0 0 0 0 0 0 0 0 0 0 0 0 0 0 0 0 0 0 0 0 0 0 0 0 0 0 0 0 0 0 0 0 0 0 0
0 0 0 0 0 0 0 0 0 0 0 0 0 0 0 0 0 0 0 0 0 0 0 0 0 0 0 0 0 0 0 0 0 0 0 0 0 0 0 0 0 0 0
0 0 0 0 0 0 0 0 0 0 0 0 0 0 0 0 0 0 0 0 0 0 0 0 0 0 0 0 0 0 0 0 0 0 0 0 0 0 0 0 0 0 0
0 0 0 0 0 0 0 0 0 0 0 0 0 0 0 0 0 0 0 0 0 0 0 0 0 0 0 0 0 0 0 0 0 0 0 0 0 0 0 0 0 0 0
0 0 0 0 0 0 0 0 0 0 0 0 0 0 0 0 0 0 0 0 0 0 0 0 0 0 0 0 0 0 0 0 0 0 0 0 0 0 0 0 0 0 0
0 0 0 0 0 0 0 0 0 0 0 0 0 0 0 0 0 0 0 0 0 0 0 0 0 0 0 0 0 0 0 0 0 0 0 0 0 0 0 0 0 0 0
Wind_Speed
5 8 10 11 10 10 10 10 10 10 10 11 10 9 10 11 11 11 11 11 11 11 11 11 11 11 10 10 9 9 9 8 8 8 8 9 9 9 9 9 9 6 8
8 9 11 11 11 10 10 10 10 10 10 10 10 10 10 10 10 10 10 10 11 11 10 10 11 10 10 10 9 8 7 6 6 6 7 8 9 9 9 10 10 6 9
9 10 10 11 11 11 11 10 10 10 10 10 10 9 9 9 10 9 9 9 10 10 10 9 10 9 9 9 8 7 6 5 4 4 4 3 7 10 10 10 10 9 9
10 11 10 11 11 11 11 11 10 10 9 9 9 8 8 8 8 9 8 8 9 9 9 9 9 9 8 8 7 6 5 5 5 4 3 4 6 10 10 10 10 10 9
12 11 11 12 12 11 11 10 10 10 9 9 8 8 8 8 8 8 8 8 8 9 9 9 8 9 8 7 6 5 5 5 6 5 5 6 6 9 10 10 9 10 9
11 11 10 12 12 12 11 11 10 10 9 9 9 8 8 9 8 8 8 8 8 9 9 8 8 8 8 7 6 5 5 5 5 4 6 6 5 9 10 9 9 9 9
10 11 11 12 13 12 12 11 10 10 10 10 9 9 9 9 9 9 9 9 9 8 8 8 8 7 7 6 5 5 6 6 2 4 6 5 6 9 10 9 9 9 9
9 11 10 12 12 12 11 10 10 9 9 9 9 9 9 9 8 9 9 9 9 8 8 8 7 6 6 5 5 5 6 6 5 6 6 5 8 10 10 10 9 9 9
7 9 9 9 9 11 11 10 9 9 9 8 8 8 8 8 8 8 8 8 8 8 7 7 6 5 5 4 3 3 5 7 4 4 7 5 8 10 10 10 9 9 9
5 6 7 7 7 8 8 9 9 9 8 7 7 7 7 7 8 8 8 8 7 7 6 6 5 4 3 3 2 3 4 4 5 6 5 6 10 10 10 10 10 9 9
5 5 6 6 5 6 7 9 8 8 7 6 4 6 6 3 4 4 7 8 7 5 5 4 4 3 3 2 1 2 3 2 4 5 5 9 11 10 10 10 9 9 9
4 4 5 5 5 5 5 5 4 4 4 3 3 3 2 2 3 6 7 7 6 5 4 3 4 3 2 1 1 1 1 3 4 5 6 11 11 11 10 10 10 9 9
5 3 4 4 5 4 3 3 2 2 2 2 3 3 2 3 2 3 3 3 3 3 2 3 3 2 2 1 1 1 3 4 4 5 6 11 11 11 10 10 10 10 10
5 4 3 3 4 5 4 2 2 2 2 2 2 3 2 1 1 2 1 2 2 1 1 1 1 2 2 2 3 3 4 3 5 4 6 12 11 11 11 11 11 11 11
5 4 3 2 4 5 4 1 3 2 2 2 1 2 2 2 2 2 1 1 2 1 1 1 2 4 4 3 4 4 4 5 6 6 5 11 12 12 12 12 12 12 12
5 5 3 3 4 4 4 2 3 3 2 2 1 1 3 2 1 1 2 2 2 1 1 2 4 4 3 3 5 5 5 5 5 6 5 7 11 12 12 12 12 13 12
6 7 4 3 4 4 5 4 3 2 3 2 1 1 3 2 2 2 2 2 2 2 3 3 4 3 3 4 4 5 5 5 5 5 4 4 5 10 12 13 13 13 13
6 8 5 3 4 5 4 2 2 3 3 2 2 2 3 3 3 3 3 2 2 3 3 3 3 3 3 4 3 4 4 4 5 4 4 4 4 5 8 12 12 13 13
5 7 6 4 4 5 3 2 3 3 2 2 3 3 3 3 4 4 2 2 3 3 2 3 3 3 3 3 3 3 3 4 3 5 5 5 5 5 4 7 11 12 13
4 5 6 5 4 4 2 3 2 3 2 3 2 3 3 2 3 3 1 3 3 3 3 3 3 3 2 2 4 4 3 3 3 4 4 5 4 5 4 5 4 7 13
4 4 6 6 5 4 2 2 2 2 1 2 2 2 2 2 3 3 2 3 2 3 3 3 3 3 2 2 3 3 3 4 4 3 3 3 4 4 4 5 4 4 5
5 4 5 6 5 4 1 2 3 3 2 2 2 2 2 2 2 2 2 2 2 2 3 3 3 1 1 1 2 2 2 2 3 3 3 3 4 3 4 6 5 5 5
5 4 5 6 5 5 3 2 3 3 2 2 2 1 2 2 2 2 2 2 2 2 2 2 2 2 1 1 1 2 2 2 1 2 2 3 3 3 3 4 6 6 6
6 4 5 5 5 5 5 3 3 3 2 2 2 2 2 2 2 2 2 2 2 2 2 2 2 2 2 1 1 1 1 3 2 1 1 2 3 3 3 4 5 5 5
6 4 4 5 5 4 5 4 2 2 2 2 2 3 2 2 2 2 2 1 1 2 2 2 3 2 1 1 0 1 1 1 1 3 2 1 2 2 2 3 3 3 4
6 5 4 5 4 4 4 4 3 3 3 3 2 2 2 2 1 2 1 1 1 2 2 2 2 2 1 1 1 1 1 1 1 2 2 2 2 1 2 2 2 2 3
Wind_Direction
82 86 77 74 74 75 79 82 86 89 86 85 85 84 79 78 76 76 77 76 77 78 77 77 78 78 78 75 73 73 75 75 76 78 79 75 70 63 57 52 54 58 65
91 89 80 78 80 79 81 87 88 89 88 86 85 87 85 84 84 81 79 80 81 80 80 80 79 77 75 72 68 68 71 70 67 71 84 79 72 67 63 60 60 57 60
86 91 82 79 83 83 83 86 90 91 89 89 88 89 90 91 92 90 86 84 85 83 81 80 80 78 75 72 68 66 65 56 43 48 59 76 76 69 68 66 65 61 59
83 81 79 81 85 85 85 86 88 89 91 94 95 93 93 95 96 95 90 87 86 85 82 78 77 77 74 72 67 64 54 32 22 35 55 65 70 72 68 64 60 59 56
84 82 82 82 85 88 87 88 90 89 91 98 100 97 96 98 98 98 96 91 88 89 84 78 72 73 71 67 62 54 35 14 19 42 66 69 66 70 67 63 58 55 52
95 92 89 86 88 90 89 88 88 89 91 94 96 98 99 100 98 99 98 96 94 91 87 82 75 73 71 64 54 39 18 12 22 62 71 73 70 70 67 62 57 54 51
100 101 98 94 92 92 91 88 88 89 88 89 89 95 97 98 98 98 96 97 96 91 88 86 81 74 73 65 51 31 10 6 40 78 76 73 69 70 65 60 55 52 50
108 111 110 105 103 99 95 91 88 88 88 89 90 91 93 97 101 100 98 98 94 88 85 87 84 75 68 64 51 32 11 1 61 78 81 73 72 70 66 61 57 54 51
108 118 128 129 117 109 103 100 96 94 94 96 99 101 103 105 105 104 103 103 100 98 95 93 88 79 74 65 55 26 9 7 40 60 76 72 72 70 65 60 57 54 52
108 112 118 125 128 128 119 114 112 110 110 112 116 121 121 120 117 114 110 105 105 105 104 104 102 101 95 81 53 9 356 3 60 60 65 73 71 69 64 60 56 54 52
103 113 115 117 119 123 126 131 136 135 138 142 145 160 159 154 138 127 110 114 113 115 122 128 137 149 139 123 66 8 360 54 77 70 64 71 70 66 63 60 57 55 53
121 117 116 121 122 114 114 136 152 144 152 163 141 155 145 106 103 112 124 129 132 137 144 166 184 186 202 202 181 48 25 55 75 75 68 68 66 64 61 59 57 54 54
116 105 105 112 118 118 109 110 103 108 126 119 117 121 112 108 125 127 146 148 158 165 179 172 193 204 191 143 108 96 71 61 68 71 63 65 64 62 61 59 57 55 54
111 100 92 115 113 103 95 101 123 109 110 101 112 109 106 113 122 120 128 137 143 150 159 156 179 116 101 101 97 80 79 78 81 81 66 64 61 60 61 60 57 55 54
124 115 84 65 93 103 101 129 109 91 88 101 86 101 101 95 104 105 123 114 112 120 127 75 71 68 61 53 63 72 78 80 88 91 75 67 63 61 61 58 58 56 54
135 116 100 96 98 119 129 111 88 103 101 89 83 116 107 103 102 99 94 86 84 78 87 87 84 77 69 56 53 54 59 67 82 96 98 75 66 65 63 58 57 56 54
133 119 105 93 99 88 81 79 94 90 90 78 41 77 103 101 82 80 83 92 98 88 71 73 81 74 82 74 60 58 57 51 64 77 90 99 83 70 66 60 56 55 52
126 121 115 104 91 85 79 74 83 76 71 65 40 48 79 89 82 70 74 78 86 82 84 89 86 76 70 70 59 56 62 50 58 63 70 77 82 82 70 67 61 57 53
124 126 129 116 102 97 99 89 64 76 67 62 49 39 51 67 83 81 62 74 77 75 69 86 80 90 93 91 92 73 62 56 51 56 58 68 72 83 85 76 69 63 57
115 125 125 114 113 108 100 98 82 67 66 65 57 57 42 44 79 90 84 78 77 80 71 75 84 79 92 96 95 85 70 65 54 49 52 59 56 66 75 78 74 64 58
134 136 135 136 131 121 117 115 113 99 82 76 69 64 53 43 65 77 77 82 83 95 103 101 92 90 91 108 94 81 65 64 67 55 48 53 55 55 58 58 61 59 56
150 167 146 138 135 127 131 139 131 124 110 95 75 63 63 67 69 103 103 99 90 90 88 89 93 90 98 115 117 111 93 49 39 68 67 63 59 50 51 57 53 54 54
160 173 152 140 138 134 128 95 101 89 80 88 86 63 48 62 54 62 85 102 111 105 113 110 105 97 70 31 76 105 120 131 122 42 68 74 69 53 48 55 57 52 53
160 165 150 142 138 131 126 118 125 130 139 141 135 140 117 97 80 59 72 75 112 108 121 142 116 98 96 50 15 48 112 130 137 122 38 62 73 60 49 58 55 54 53
147 142 133 124 121 120 128 126 120 129 138 125 125 128 122 105 104 88 88 77 101 112 120 102 101 88 91 117 113 96 69 64 96 125 130 114 67 61 71 71 65 57 55
138 136 130 123 122 125 135 140 150 144 136 132 132 140 138 130 122 117 126 115 96 98 97 108 115 111 80 59 54 75 96 90 97 106 122 128 118 104 88 80 74 71 68